Location: Five Points
(34.0622°N, 118.0192°W)
Time: 16:37:51
(UTC+00:00)

Daily predictions for brighter satellites

Satellite Brightness Start Highest point End
(mag) Time Altitude Azimuth Time Altitude Azimuth Time Altitude Azimuth
Cosmos 2227 Rocket 3.7 12:09:57 29° SSE 12:09:57 29° SSE 12:12:34 10° SSE
ATLAS 2AS CENTAUR R/B 3.9 12:04:12 10° S 12:11:32 46° ESE 12:19:06 10° NE
Cosmos 2184 Rocket 3.9 12:24:44 82° E 12:24:44 82° E 12:30:59 10° S
Cosmos 2154 Rocket 4.5 12:26:59 10° N 12:33:04 57° E 12:39:09 10° SSE
Cosmos 1980 Rocket 2.1 12:48:35 68° NW 12:48:35 68° NW 12:53:53 10° NNE
FENGYUN 3A 4.3 12:46:02 10° NNE 12:51:20 55° E 12:56:37 10° S
SEDSat Delta rocket 3.8 12:50:45 58° SW 12:51:42 66° S 12:57:24 10° ESE
Cosmos 2074 Rocket 4.0 12:53:05 54° WSW 12:53:05 54° WSW 12:58:32 10° SSW
Cosmos 1697 Rocket 4.5 12:59:15 16° N 12:59:15 16° N 13:00:37 10° N
BREEZE-M DEB (TANK) 3.5 12:52:50 32° NW 12:57:34 88° SW 13:01:19 10° SE
STARLINK 1032 4.4 13:01:11 37° SSE 13:01:50 41° SE 13:05:15 10° ENE
Cosmos 1602 Rocket 4.5 13:03:47 34° SSW 13:03:47 34° SSW 13:06:21 10° S
STARLINK 1011 4.3 13:03:51 37° SSE 13:04:38 44° SE 13:08:05 10° ENE
Cosmos 44 Rocket 3.1 13:05:55 51° NNW 13:07:07 89° WSW 13:11:54 10° SSE
STARLINK 1036 4.1 13:06:34 38° S 13:07:27 48° SE 13:10:57 10° NE
SKYMED 2 3.7 13:04:19 10° SSE 13:08:37 72° ENE 13:12:01 16° N
Cosmos 1680 Rocket 3.9 13:07:24 10° S 13:12:39 67° ESE 13:17:56 10° NNE
STARLINK 1047 3.8 13:12:03 38° S 13:13:09 56° SE 13:16:42 10° NE
STARLINK 1037 3.8 13:12:54 38° SSW 13:14:01 58° SE 13:17:35 10° NE
STARLINK 1035 3.4 13:15:28 51° S 13:16:06 65° SE 13:19:28 10° NE
STARLINK 1059 3.6 13:15:41 37° SSW 13:16:54 63° SE 13:20:29 10° NE
STARLINK 1027 3.1 13:18:21 59° SSW 13:18:53 77° SE 13:22:17 10° NE
CZ-3A R/B 4.3 13:12:51 23° WSW 13:18:57 55° S 14:08:00 10° ESE
Cosmos 1758 Rocket 3.5 13:14:53 10° N 13:19:18 83° E 13:23:43 10° S
STARLINK 1057 3.5 13:18:28 36° SSW 13:19:47 68° SE 13:23:24 10° NE
STARLINK 1052 3.3 13:21:16 34° SSW 13:22:42 74° SE 13:26:20 10° NE
COSMOS 2455 3.3 13:22:08 32° W 13:23:49 39° WNW 13:29:24 10° N
Meteor 1-21 Rocket 4.2 13:18:13 10° N 13:24:07 80° W 13:30:02 10° S
OE (NEXTSAT) 4.3 13:23:37 49° SW 13:24:28 83° SE 13:27:58 10° ENE
STARLINK 1068 3.2 13:24:05 32° SW 13:25:37 81° SE 13:29:15 10° NE
Cosmos 2181 Rocket 4.0 13:19:32 10° S 13:25:43 87° E 13:32:01 10° N
ATLAS 3B R/B 4.3 13:20:51 10° N 13:26:35 29° NE 13:32:27 10° ESE
NOSS 3-4 (A) 3.3 13:21:43 10° SW 13:27:38 71° WNW 13:33:49 10° NNE
NOSS 3-4 (C) 3.3 13:21:49 10° SW 13:27:44 72° WNW 13:33:55 10° NNE
Cosmos 2082 4.3 13:27:04 31° WNW 13:28:18 35° WSW 13:33:23 10° SSW
Cosmos 2112 Rocket 4.1 13:24:24 10° SSW 13:29:43 83° ESE 13:35:05 10° NNE
STARLINK 1060 3.1 13:29:43 29° SW 13:31:27 87° NW 13:35:06 10° NE
Okean O Rocket 1.7 13:27:32 10° NNE 13:32:00 81° ESE 13:36:24 10° S
USA 215 3.8 13:25:49 10° ESE 13:32:09 56° NE 13:38:17 11° NW
Gbstr 26 Del rocket 4.2 13:26:54 14° SW 13:32:49 75° NW 13:40:45 10° NE
STARLINK 1030 3.1 13:32:30 27° SW 13:34:24 81° NW 13:38:02 10° NE
SL-8 Rocket 4.2 13:28:56 10° N 13:35:07 75° E 13:41:15 10° S
Lacrosse 5 2.1 13:30:24 10° SSW 13:35:27 74° SE 13:40:32 10° NE
Meteor 2-17 Rocket 4.5 13:30:17 10° NNW 13:36:11 55° W 13:42:03 10° SSW
STARLINK 1020 3.1 13:35:22 25° SW 13:37:21 76° NW 13:41:00 10° NE
CZ-4B DEB 4.2 13:32:11 10° N 13:37:38 60° WNW 13:43:02 10° SSW
Cosmos 2297 Rocket 4.2 13:40:11 11° WSW 13:40:11 11° WSW 13:40:31 10° SW
Cosmos 2322 Rocket 2.4 13:32:16 10° SSW 13:37:52 73° ESE 13:43:32 10° NNE
Cosmos 2341 Rocket 3.9 13:33:22 10° N 13:39:35 71° W 13:45:44 10° S
STARLINK 1034 3.1 13:38:12 23° SW 13:40:19 70° NW 13:43:57 10° NE
STARLINK 1029 2.9 13:39:40 39° W 13:40:31 56° NW 13:43:37 10° NE
NOSS 3-2 (A) 4.1 13:33:02 10° NNW 13:40:53 83° WSW 13:49:29 10° SSE
Cosmos 2058 Rocket 3.1 13:36:36 10° S 13:41:01 84° E 13:45:24 10° N
Cosmos 1726 2.5 13:38:52 10° SSW 13:42:19 39° W 13:45:47 10° N
ALOS 2.7 13:38:01 10° N 13:42:21 39° WNW 13:46:40 10° SW
ADEOS Rocket 3.9 13:37:12 10° SE 13:42:21 44° ENE 13:47:36 10° N
STARLINK 1028 3.1 13:42:50 39° WNW 13:43:08 41° NW 13:45:56 10° NNE
STARLINK 1021 3.1 13:43:04 39° WNW 13:43:22 41° NW 13:46:10 10° NNE
STARLINK 1019 3.1 13:43:19 39° WNW 13:43:37 40° NW 13:46:23 10° NNE
Cosmos 1328 4.1 13:39:50 10° N 13:43:49 69° E 13:47:44 10° SSE
STARLINK 1012 3.1 13:43:30 38° WNW 13:43:50 40° NW 13:46:36 10° NNE
STARLINK 1010 3.1 13:43:41 38° WNW 13:44:02 40° NW 13:46:49 10° NNE
Cosmos 1825 Rocket 3.6 13:39:52 10° NNW 13:44:07 56° W 13:48:22 10° S
STARLINK 1026 3.1 13:43:54 38° WNW 13:44:15 40° NW 13:47:02 10° NNE
STARLINK 1013 3.1 13:44:08 37° WNW 13:44:30 39° NW 13:47:16 10° NNE
STARLINK 1009 3.1 13:44:22 37° WNW 13:44:44 39° NW 13:47:30 10° NNE
STARLINK-46 3.4 13:45:16 24° SSW 13:45:16 24° SSW 13:46:34 10° SSE
STARLINK 1015 3.2 13:44:34 37° WNW 13:44:57 39° NW 13:47:43 10° NNE
STARLINK 1016 3.2 13:44:47 36° WNW 13:45:11 39° NW 13:47:56 10° NNE
STARLINK 1008 3.2 13:45:01 36° WNW 13:45:24 38° NW 13:48:09 10° NNE
STARLINK 1025 3.2 13:45:27 36° WNW 13:45:50 38° NW 13:48:35 10° NNE
STARLINK 1017 3.2 13:45:39 35° WNW 13:46:04 38° NW 13:48:49 10° NNE
STARLINK 1023 3.2 13:45:51 35° WNW 13:46:17 37° NW 13:49:02 10° NNE
STARLINK 1033 3.3 13:43:55 20° WSW 13:46:17 60° NW 13:49:54 10° NE
STARLINK 1007 3.2 13:46:06 35° WNW 13:46:33 37° NW 13:49:18 10° NNE
STARLINK 1048 3.2 13:46:18 34° WNW 13:46:46 37° NW 13:49:31 10° NNE
STARLINK 1049 3.3 13:46:30 34° WNW 13:46:58 37° NW 13:49:43 10° NNE
STARLINK 1051 3.3 13:46:44 34° WNW 13:47:12 37° NW 13:49:56 10° NNE
STARLINK 1014 3.4 13:48:44 31° WNW 13:49:25 35° NW 13:52:12 10° NNE
CENTAUR R/B 3.7 13:41:58 10° NNW 13:50:13 64° ENE 13:58:53 10° SE
Cosmos 2263 Rocket 2.6 13:47:32 10° NNW 13:53:10 67° ENE 13:58:47 10° SSE
COSMO-SKYMED 1 3.4 13:53:01 10° SSW 13:56:47 29° W 14:00:33 10° NW
Cosmos 1606 Rocket 4.4 13:53:14 10° SW 13:57:06 29° WNW 14:00:58 10° NNW
H-2A R/B 3.1 13:53:17 10° NNE 13:57:11 69° ESE 14:01:00 10° S
CZ-3 R/B 2.7 13:42:54 14° W 13:57:42 57° SSW 14:02:57 10° ESE
Cosmos 1300 4.3 13:54:40 10° SSE 13:58:14 39° E 14:01:49 10° NNE
Cosmos 1726 Rocket 4.1 13:54:33 10° SSW 13:58:38 35° W 14:02:43 10° NNW
ATLAS 2AS CENTAUR R/B 3.5 13:55:22 10° WSW 14:02:39 39° NW 14:10:02 10° NNE
Cosmos 1908 3.6 14:00:42 10° SSW 14:04:23 41° W 14:08:06 10° N
SL-4 R/B 1.7 14:01:32 13° NW 14:04:33 72° NE 14:07:56 10° SE
STARLINK 1044 3.9 14:04:26 11° WSW 14:07:35 35° NW 14:11:00 10° NNE
Cosmos 2218 Rocket 4.0 14:03:44 10° NNW 14:10:04 68° W 14:16:18 10° S
Cosmos 864 Rocket 4.5 14:07:26 10° N 14:13:38 71° W 14:19:51 10° S
Helios 1A Rocket 3.5 14:13:29 10° N 14:17:17 36° WNW 14:21:05 10° SW
SL-16 R/B 2.6 14:12:14 10° SW 14:17:34 42° WNW 14:22:56 10° N
USA 238 DEB 4.3 14:11:06 10° NW 14:17:53 42° WSW 14:24:48 10° S
USA 238 4.3 14:11:12 10° NW 14:17:59 43° WSW 14:24:56 10° S
Genesis I 4.0 14:15:43 10° NNW 14:19:27 50° ENE 14:23:09 10° SE
Timation 1 Rocket 4.4 14:13:46 10° NNW 14:19:45 69° WSW 14:25:41 10° S
Cosmos 2228 4.5 14:17:30 10° WSW 14:20:29 18° WNW 14:23:28 10° NNW
STARLINK 1050 4.3 14:18:11 10° SSW 14:22:14 58° SE 14:26:18 10° NE
BREEZE-M DEB (TANK) 3.6 14:22:10 10° W 14:23:28 14° SW 14:24:43 10° SSW
Cosmos 1703 4.0 14:20:45 10° NNW 14:24:18 33° W 14:27:49 10° SSW
Cosmos 1340 Rocket 3.8 14:21:55 10° S 14:25:43 51° E 14:29:30 10° NNE
Cosmos 2360 Rocket 2.3 14:20:09 10° SSW 14:25:49 88° WNW 14:31:32 10° NNE
STARLINK 1055 4.1 14:23:07 10° SW 14:27:13 65° SE 14:31:19 10° NE
Milstar 3 4.5 14:23:22 10° SW 14:30:52 33° SSE 14:36:47 10° E
Cosmos 2219 Rocket 4.5 14:27:32 10° SSE 14:32:25 31° ESE 14:37:20 10° NE
Cosmos 2237 4.2 14:26:55 10° SSW 14:32:38 81° WNW 14:38:22 10° NNE
